Location: Alpha Ridge Park
(39.3209°N, 76.9128°W)
Time: 23:21:27
(UTC-04:00)

Transit 2A - Pass Details

Date: 28 May 2019
Orbit: 593 x 966 km, 66.7° (Epoch: 23 June)

Event Time Altitude Azimuth Distance (km) Brightness Sun altitude
Rises 14:05:23 0° 343° (NNW) 3,579 9.3 68.0°
Reaches altitude 10° 14:10:35 10° 20° (NNE) 2,546 8.6 67.3°
Maximum altitude 14:11:55 11° 33° (NNE) 2,467 8.5 67.2°
Drops below altitude 10° 14:13:13 10° 46° (NE) 2,491 8.5 67.0°
Sets 14:18:01 0° 84° (E) 3,309 9.1 66.3°
